Location: Leiter
(44.7178°N, 106.2687°W)
Time: 14:53:08
(UTC+00:00)

Tiangong - Pass Details

Date: 28 January 2022
Orbit: 386 x 389 km, 41.5° (Epoch: 21 May)

Event Time Altitude Azimuth Distance (km) Brightness Sun altitude
Rises 01:53:31 0° 235° (SW) 2,361 6.1 -18.9°
Reaches altitude 10° 01:55:47 10° 224° (SW) 1,504 4.7 -19.3°
Enters shadow 01:58:36 29° 168° (SSE) 810 2.6 -19.8°
